Lihue, HI

1:21 PM HST on March 27, 2017 (GMT -1000)
Lihue

Weather History for PHLI - September, 2015

Change the Weather History Date:

Wednesday, September 16, 2015

  Actual Average Record
Temperature  
Mean Temperature 82 °F 80 °F  
Max Temperature 85 °F 85 °F 89 °F (1959)
Min Temperature 79 °F 74 °F 66 °F (1981)
Degree Days  
Heating Degree Days 0 0  
Month to date heating degree days 0 0  
Since 1 July heating degree days 0 0  
Cooling Degree Days 17 14  
Month to date cooling degree days 126 239  
Year to date cooling degree days 2085 2765  
Growing Degree Days 31 (Base 50)    
Moisture  
Dew Point 71 °F    
Average Humidity 72    
Maximum Humidity 78    
Minimum Humidity 57    
Precipitation  
Precipitation 0.00 in 0.07 in 0.65 in (2005)
Month to date precipitation 4.07 0.98  
Year to date precipitation 11.78 22.43  
Snow  
Snow 0.00 in - - ()
Month to date snowfall 0.0  
Since 1 July snowfall 0.0  
Since 1 September snowfall 0.0  
Snow Depth -    
Sea Level Pressure  
Sea Level Pressure 30.02 in    
Wind  
Wind Speed 13 mph (NE)    
Max Wind Speed 18 mph    
Max Gust Speed 23 mph    
Visibility 10 miles    
Events      
T = Trace of Precipitation, MM = Missing Value Source: NWS Daily Summary

Daily Weather History Graph

Daily Weather History Graph

Search for Another Location

Airport or City:

Trip Planner

Search our weather history database for the weather conditions in past years. The results will help you decide how hot, cold, wet, or windy it might be!

Date:

Astronomy

Sep. 16, 2015 Rise Set
Actual Time 6:24 AM HST 6:39 PM HST
Civil Twilight 6:02 AM HST 7:01 PM HST
Nautical Twilight 5:36 AM HST 7:27 PM HST
Astronomical Twilight 5:09 AM HST 7:54 PM HST
Moon 9:13 AM HST (9/16) 9:00 PM HST (9/16)
Length of Visible Light 12h 59m
Length of Day
12h 15m
Waxing Crescent, 11% of the Moon is Illuminated
Sep 16
Waxing Crescent
Sep 20
First Quarter
Sep 27
Full
Oct 4
Last Quarter
Oct 12
New

Hourly Weather History & Observations

Time (HST) Temp. Heat Index Dew Point Humidity Pressure Visibility Wind Dir Wind Speed Gust Speed Precip Events Conditions
12:12 AM 80.6 °F 84.6 °F 71.6 °F 74% 30.04 in 10.0 mi ENE 17.3 mph - N/A   Overcast
12:53 AM 80.1 °F 83.8 °F 72.0 °F 76% 30.03 in 10.0 mi NE 15.0 mph - N/A   Overcast
1:53 AM 80.1 °F 83.6 °F 71.1 °F 74% 30.01 in 10.0 mi ENE 13.8 mph - N/A   Overcast
2:53 AM 80.1 °F 83.6 °F 71.1 °F 74% 30.00 in 10.0 mi ENE 11.5 mph - N/A   Overcast
3:53 AM 80.1 °F 83.2 °F 70.0 °F 71% 29.99 in 10.0 mi ENE 10.4 mph - N/A   Overcast
4:53 AM 80.1 °F 83.6 °F 71.1 °F 74% 29.99 in 10.0 mi ENE 12.7 mph - N/A   Overcast
5:53 AM 80.1 °F 83.8 °F 72.0 °F 76% 30.00 in 10.0 mi ENE 12.7 mph - N/A   Overcast
6:18 AM 80.6 °F 84.6 °F 71.6 °F 74% 30.02 in 10.0 mi NE 13.8 mph - N/A   Mostly Cloudy
6:37 AM 78.8 °F - 71.6 °F 78% 30.02 in 10.0 mi ENE 12.7 mph - N/A   Scattered Clouds
6:53 AM 80.1 °F 83.8 °F 72.0 °F 76% 30.01 in 10.0 mi ENE 11.5 mph - N/A   Mostly Cloudy
7:53 AM 81.0 °F 85.2 °F 72.0 °F 74% 30.02 in 10.0 mi NE 15.0 mph - N/A   Scattered Clouds
8:53 AM 82.9 °F 88.0 °F 72.0 °F 69% 30.04 in 10.0 mi ENE 13.8 mph - N/A   Scattered Clouds
9:34 AM 82.4 °F 88.2 °F 73.4 °F 74% 30.05 in 10.0 mi ENE 12.7 mph - N/A   Mostly Cloudy
9:53 AM 84.0 °F 89.6 °F 72.0 °F 67% 30.04 in 10.0 mi NE 15.0 mph - N/A   Mostly Cloudy
10:53 AM 82.0 °F 86.7 °F 72.0 °F 71% 30.05 in 10.0 mi NE 17.3 mph - N/A   Mostly Cloudy
11:53 AM 84.0 °F 90.2 °F 73.0 °F 69% 30.04 in 10.0 mi ENE 16.1 mph - N/A   Mostly Cloudy
12:53 PM 84.0 °F 89.6 °F 72.0 °F 67% 30.03 in 10.0 mi NE 15.0 mph - N/A   Mostly Cloudy
1:53 PM 84.0 °F 89.0 °F 71.1 °F 65% 30.01 in 10.0 mi NE 13.8 mph - N/A   Partly Cloudy
2:53 PM 84.0 °F 89.6 °F 72.0 °F 67% 29.99 in 10.0 mi NE 10.4 mph - N/A   Scattered Clouds
3:53 PM 82.9 °F 87.5 °F 71.1 °F 67% 29.99 in 10.0 mi NE 12.7 mph - N/A   Partly Cloudy
4:53 PM 82.0 °F 86.3 °F 71.1 °F 69% 29.99 in 10.0 mi NE 12.7 mph - N/A   Scattered Clouds
5:53 PM 81.0 °F 84.1 °F 69.1 °F 67% 30.00 in 10.0 mi NE 12.7 mph - N/A   Partly Cloudy
6:53 PM 79.0 °F - 70.0 °F 74% 30.01 in 10.0 mi NE 9.2 mph - N/A   Mostly Cloudy
7:06 PM 78.8 °F - 71.6 °F 78% 30.02 in 10.0 mi NE 8.1 mph - N/A   Scattered Clouds
7:53 PM 79.0 °F - 70.0 °F 74% 30.03 in 10.0 mi NE 8.1 mph - N/A   Scattered Clouds
8:40 PM 78.8 °F - 69.8 °F 74% 30.04 in 10.0 mi NE 9.2 mph - N/A   Mostly Cloudy
8:53 PM 79.0 °F - 70.0 °F 74% 30.04 in 10.0 mi NE 9.2 mph - N/A   Mostly Cloudy
9:53 PM 79.0 °F - 71.1 °F 77% 30.06 in 10.0 mi ENE 8.1 mph - N/A   Mostly Cloudy
10:53 PM 79.0 °F - 71.1 °F 77% 30.05 in 10.0 mi ENE 9.2 mph - N/A   Scattered Clouds
11:53 PM 79.0 °F - 71.1 °F 77% 30.04 in 10.0 mi NE 11.5 mph - N/A   Mostly Cloudy